Location: Moscow
(30.9132°N, 94.8252°W)
Time: 07:11:18
(UTC+00:00)

Cosmos 1464 Rocket - Pass Details

Date: 15 November 2025
Orbit: 950 x 1001 km, 82.9° (Epoch: 13 December)

Event Time Altitude Azimuth Distance (km) Brightness Sun altitude
Rises 00:37:50 0° 181° (S) 3,703 7.2 -16.4°
Reaches altitude 10° 00:40:21 10° 180° (S) 2,753 6.5 -17.0°
Maximum altitude 00:46:40 80° 94° (E) 1,007 3.9 -18.3°
Drops below altitude 10° 00:52:57 10° 8° (N) 2,736 6.2 -19.6°
Sets 00:55:27 0° 8° (N) 3,679 6.8 -20.2°
